Regional Weather Roundup
Issued by NWS Pendleton, OR

Home | Current Version | Previous Version | Text Only | Print | Product List | Glossary On
Versions: 1 2 3 4 5 6 7 8 9 10 11 12 13 14 15 16 17 18 19 20 21 22 23 24 25 26 27 28 29 30 31 32 33 34 35 36 37 38 39 40 41 42 43 44 45 46 47 48 49 50
231
ASUS46 KPDT 142325
RWRPDT
PENDLETON REGIONAL WEATHER ROUNDUP
NATIONAL WEATHER SERVICE PENDLETON OREGON
300 PM PST SUN FEB 14 2016

NOTE: FAIR INDICATES FEW OR NO CLOUDS BELOW 12,000 FEET WITH NO
SIGNIFICANT WEATHER AND/OR OBSTRUCTIONS TO VISIBILITY.

# INDICATES UNOFFICIAL STATION AND DATA

WAZ520-150010-
EAST SLOPES OF WASHINGTON CASCADES

CITY            SKY/WX      TMP DP  RH  WIND    PRES   REMARKS
#BUMPING DAM    N/A         39  N/A N/A E1      N/A
#CLE ELUM HS    N/A         42  41  96  CALM    30.06S
#CLE ELUM 2NW   N/A         41  41  100 CALM    N/A
#CLE ELUM LAKE  N/A         42  41  96  N3      30.12F
#CLIFFDEL 2NW   N/A         42  40  93  W8      N/A
#GLENWOOD       N/A         51  48  89  E7      30.16R
#MANASTASH CYN  N/A         40  36  85  CALM    30.03F
#NELSON         N/A         N/A N/A N/A CALM    30.04F
#NELSON 3SW     N/A         42  41  96  CALM    30.34F
#NILE           N/A         41  40  96  CALM    29.41R
#RONALD 2NW     N/A         42  N/A N/A N2      29.96S
#SNOWDEN        N/A         46  44  93  NW2     N/A
#TEANAWAY 4NE   N/A         42  42  100 CALM    N/A
#TROUT LAKE 1NE N/A         45  43  93  W7      30.20S
#TROUT LAKE 1E  N/A         45  44  96  CALM    30.12S
$$

WAZ521-150010-
SIMCOE HIGHLANDS

CITY            SKY/WX      TMP DP  RH  WIND    PRES   REMARKS
#CENTERVILLE 1SWN/A         54  47  77  W22     30.10F
#GOLDENDALE     N/A         53  47  80  W13     N/A
#GOLDENDALE 1NE N/A         53  40  61  SW7     N/A
#GOODNOE HILLS  N/A         56  47  72  SW25    30.01F
#LYLE 6NE       N/A         53  49  86  S9      30.14S
$$

WAZ026-150010-
KITTITAS VALLEY

CITY            SKY/WX      TMP DP  RH  WIND    PRES   REMARKS
ELLENSBURG AP   LGT RAIN    43  38  82  NW8     30.07F
#ELLENSBURG CWU N/A         44  41  89  NW1     30.07S
#ELLENSBURG 3NE N/A         42  40  93  CALM    30.07F
#ELLENSBURG     N/A         47  47  100 NW2     N/A
#ELLENSBURG 1E  N/A         45  N/A N/A CALM    N/A
#KITTITAS 4N    N/A         45  40  82  SE1     30.11F
#KITTITAS 3S    N/A         39  37  92  CALM    30.12S
#THORP 6N       N/A         42  41  96  NW12    30.13F WCI 35
$$

WAZ027-150010-
YAKIMA VALLEY

CITY            SKY/WX      TMP DP  RH  WIND    PRES   REMARKS
SUNNYSIDE AP    CLOUDY      60  45  58  SW5     30.07S
YAKIMA AIRPORT  CLOUDY      56  41  57  W6      30.08F
YAKIMA-VAGABOND SUNNY       53  42  66  NW3     30.06S
#DONALD 2NE     N/A         56  34  43  N3      28.92S
#GRANDVIEW      N/A         61  44  53  NW2     30.09S
#MABTON         N/A         62  48  60  W7      30.07R
#MOXEE 2E       N/A         53  33  46  W1      29.99S
#NACHES 2SW     N/A         51  43  74  CALM    30.10S
#OUTLOOK DOT    N/A         N/A N/A N/A SE5     N/A
#SELAH 8E       N/A         51  42  71  W6      N/A
#TERRACE HTS    N/A         55  45  69  CALM    30.07S
#TOPPENISH      N/A         59  47  64  N2      29.99R
#WEST VALLEY    N/A         53  43  69  CALM    30.09F
#W YAKIMA       N/A         53  43  69  CALM    30.11F
#WHITE SWAN 5E  N/A         57  47  69  CALM    30.08F
#WILEY CITY 3W  N/A         49  39  68  E1      30.04F
$$

WAZ028-150010-
LOWER COLUMBIA BASIN...WASHINGTON

CITY            SKY/WX      TMP DP  RH  WIND    PRES   REMARKS
HANFORD         CLOUDY      61  44  53  SE2     30.07S
PASCO           MOCLDY      58  47  67  SW18    30.09F
PROSSER AWOS    N/A         63  46  54  SW5     30.10R
RICHLAND AWOS   PTCLDY      63  50  62  S15     30.08S
#BENTON CITY    N/A         60  49  67  SW15G26 29.99S
#CONNELL 5N     N/A         53  49  86  S8      30.09S
#ELTOPIA 6NW    N/A         57  51  80  SW9     29.05S
#KAHLOTUS       N/A         52  47  83  W14G25  30.10R
#KENNEWICK 3S   N/A         55  48  77  NE8G26  30.09S
#PATERSON       N/A         57  49  75  SW13    30.10F
#PROSSER        N/A         62  44  52  SW3     30.08S
#SAGEMOOR 2W    N/A         57  51  80  S12     29.94S
#TOUCHET 2S     N/A         56  47  72  SW17G24 30.08F
#WEST PASCO     N/A         59  49  69  SW6     30.09F
$$

WAZ029-150010-
FOOTHILLS OF THE BLUES...WASHINGTON

CITY            SKY/WX      TMP DP  RH  WIND    PRES   REMARKS
WALLA WALLA AP  CLOUDY      54  46  74  S13     30.12F
#CLYDE 6NW      N/A         51  46  83  SW10    30.11S
#DAYTON SCHOOL  N/A         53  42  66  S12     30.12F
#LOWDEN 2SE     N/A         57  48  72  SW2     30.09F
#PLEASANT VIEW 1N/A         50  46  86  S15G24  30.14F
#PRESCOTT       N/A         54  50  86  SW1     30.12F
#WHITMAN COLLEGEN/A         55  48  77  S7      30.17F
#WAITSBURG 5S   N/A         51  47  86  S9      30.23S
#WAITSBURG 8N   N/A         50  28  42  S9      29.97S
#WALLA WALLA 5E N/A         53  48  83  SW10    N/A
#WALLA WALLA U  N/A         57  49  75  CALM    30.12F
#WHITMAN MISSIONN/A         57  48  72  S1      30.13F
$$

WAZ030-150010-
BLUE MOUNTAINS...WASHINGTON

CITY            SKY/WX      TMP DP  RH  WIND    PRES   REMARKS
#DIXIE 5SE      N/A         47  44  89  S10     30.06S
#SKI BLUEWOOD   N/A         39  37  92  N5      30.10S
$$

ORZ009-041-WAZ024-150010-
COLUMBIA RIVER GORGE

CITY            SKY/WX      TMP DP  RH  WIND    PRES   REMARKS
HOOD RIVER AP   CLOUDY      55  50  83  NW13    30.17S
THE DALLES AP   MOCLDY      60  49  67  N22G30  30.14R
#ARLINGTON AIRPON/A         57  50  77  W12     30.14F
#ARLINGTON HS   N/A         60  48  64  N5      30.03F
#CELILO DOT     N/A         59  45  60  SW5     N/A
#LYLE           N/A         58  52  80  W13     30.17R
#MARYHILL 2W    N/A         59  50  72  W12     N/A
#MOSIER 1S      N/A         55  45  69  NW9     30.14S
#MURDOCK        N/A         60  53  78  NW14    30.12R
#RUFUS DOT      N/A         56  48  74  CALM    N/A

$$

ORZ510-150010-
NORTH CENTRAL OREGON

CITY            SKY/WX      TMP DP  RH  WIND    PRES   REMARKS
#CHENOWITH 1W   N/A         52  50  93  W20G28  N/A
#COW CYN RST AREN/A         55  44  66  W18     N/A
#DUFUR 9E       N/A         54  48  80  W7      30.22R
#GRASS VALLEY 1SN/A         56  49  77  SW21    30.13F
#KENT DOT       N/A         59  39  47  N21     N/A
#MAUPIN SCHOOL  N/A         64  50  60  SW13G26 30.17R
#SHANIKO 5WSW   N/A         53  38  57  SW21    N/A
#SHANIKO 4NW    N/A         52  44  74  W23G31  30.17R
#TYGH VALLEY 2NEN/A         62  51  67  W14     30.14R
#WAPANITIA AIRPON/A         58  49  72  W12     30.20R
#WASCO DOT      N/A         57  46  67  W8      N/A
#WASCO AIRPORT  N/A         55  48  77  W8      N/A
#WASCO 5NE      N/A         55  50  83  N2      30.15F
$$

ORZ511-150010-
CENTRAL OREGON

CITY            SKY/WX      TMP DP  RH  WIND    PRES   REMARKS
BEND AIRPORT    MOCLDY      55  45  69  SW14    30.24R
MADRAS AIRPORT  CLOUDY      57  45  64  W12     30.24R
PRINEVILLE AP   PTCLDY      59  45  60  W17G25  30.23S
REDMOND AIRPORT MOCLDY      60  44  55  N14     30.23S
#ASHWOOD SCHOOL N/A         58  45  62  SW3     30.15R
#BEND 6E        N/A         54  42  64  CALM    30.18F
#BEND 1SW       N/A         51  46  83  SW2     N/A
#BEND-KIM LN    N/A         54  46  74  SW7     30.23R
#LAKE BILLY CHINN/A         58  N/A N/A W6      30.25R
#MADRAS         N/A         59  44  57  W10     N/A
#POWELL BUTTE 3EN/A         57  44  62  NW13    N/A
#PRINEVILLE 3N  N/A         59  47  64  W16G25  30.22S
#WARM SPRINGS   N/A         62  47  58  S1      30.16R

$$


ORZ509-150010-
EAST SLOPES OF OREGON CASCADES

CITY            SKY/WX      TMP DP  RH  WIND    PRES   REMARKS
SISTERS AWOS    N/A         55  43  64  SW13    30.19R
#BLUE BOX PASS  N/A         44  N/A N/A CALM    N/A
#BLACK BUTTE RNCN/A         50  46  86  CALM    30.25R
#CAMP SHERMAN   N/A         47  44  89  S1      30.33R
#LA PINE DOT    N/A         48  44  86  S2      N/A
#LA PINE 4NW    N/A         46  43  89  CALM    30.34S
#SISTERS AIRPOR N/A         56  49  77  N5      30.17S
#SISTERS ODOT   N/A         56  N/A N/A SW3     N/A
#SISTERS 1NW    N/A         55  41  59  N7      N/A
#SISTERS 3N     N/A         55  42  61  N3      30.24R
#SUNRIVER       N/A         48  46  93  SE2     30.31S
#SUTTLE LK DOT  N/A         41  41  100 W43G77  N/A    WCI 28
#TUMALO 3W      N/A         54  44  69  CALM    30.12S
#WANOGA BUTTE D N/A         40  40  100 CALM    N/A

$$

ORZ044-150010-
LOWER COLUMBIA BASIN...OREGON

CITY            SKY/WX      TMP DP  RH  WIND    PRES   REMARKS
HERMISTON       CLOUDY      59  47  64  SW15    30.12F
#BOARDMAN SCHOOLN/A         60  49  67  SW13    30.12F
#BOARDMAN 8SW   N/A         60  50  69  SW9     30.13S
#ECHO 8SW       N/A         57  45  64  W2      30.13F
#I-84 EX 198 DOTN/A         56  46  69  SW15G24 N/A
#IONE SCHOOL    N/A         59  39  47  W2      30.10S
#IRRIGON 4NW    N/A         59  50  72  S13     N/A
#UMATILLA SCHOOLN/A         57  53  86  N1      30.10F
#UMATILLA       N/A         59  47  64  W7      30.06F
$$

ORZ507-150010-
NORTHERN FOOTHILLS OF THE BLUES

CITY            SKY/WX      TMP DP  RH  WIND    PRES   REMARKS
PENDLETON AIRPT CLOUDY      53  47  80  S3      30.13F
#ADAMS 3WNW     N/A         51  48  89  SW3     30.15F
#ATHENA         N/A         53  48  83  SW3     30.16F
#CAYUSE         N/A         55  48  77  SW7     30.13F
#HELIX SCHOOL   N/A         51  48  89  SW7     30.14F
#HELIX 3N       N/A         49  46  89  S8      30.09S
#HOLDMAN 5SE    N/A         52  48  86  CALM    30.12F
#HOLDMAN 6E     N/A         51  46  83  N7      29.96S
#M-F GROVE ELEM N/A         56  46  69  S9      30.09F
#M-FREEWATER 5SEN/A         54  47  77  CALM    30.12F
#PENDLETON DNTN N/A         54  49  83  CALM    30.16S
#PDT AQUATIC CTRN/A         54  47  77  CALM    30.14S
#PDT SUNRIDGE   N/A         54  49  83  CALM    30.14F
#PENDLETON 7NW  N/A         53  48  83  CALM    26.41S
#PILOT ROCK     N/A         55  45  69  S2      30.14F
#TUTUILLA       N/A         53  49  86  CALM    30.15F
#UMAPINE 2E     N/A         57  49  75  SW1     30.09F
#WESTON SCHOOL  N/A         51  44  77  SW7     30.09F

$$

ORZ508-150010-
SOUTHERN FOOTHILLS OF THE BLUES

CITY            SKY/WX      TMP DP  RH  WIND    PRES   REMARKS
#CONDON SCHOOL  N/A         56  48  74  SW15G24 30.10F
#FOSSIL SCHOOL  N/A         56  46  69  W7      30.11S
#HEPPNER EOC    N/A         57  47  69  SW9     30.09S
#HEPPNER 4NE    N/A         53  46  77  SW7     30.16F
#LEXINGTON 2SE  N/A         61  48  62  W5      30.10F
#MIKKALO        N/A         59  47  64  W8      30.22S
#OLEX 4N        N/A         58  50  75  W10     30.11F
#RUGGS 2SW      N/A         56  46  69  W13     30.18S

$$

ORZ502-503-150010-
BLUE MOUNTAINS

CITY            SKY/WX      TMP DP  RH  WIND    PRES   REMARKS
MEACHAM         LGT RAIN    39  39  100 CALM    30.15F FOG
#BATTLE MTN DOT N/A         39  39  100 S5      N/A
#HEPPNER 15SE   N/A         36  28  72  N5      30.30S
#LADD CREEK ODOTN/A         38  35  89  S8      N/A
#N POWDER DOT   N/A         39  37  92  W2      N/A
#PIKES PEAK     N/A         45  44  96  SW23G31 27.99S WCI 36
#TOLLGATE       N/A         38  38  100 S5      29.98S
#TROY SCHOOL    N/A         51  43  74  W1      30.01F
#UKIAH          N/A         44  42  93  CALM    30.15F
#WESTON 4E      N/A         45  43  93  S6      30.15F
$$

ORZ505-150010-
JOHN DAY BASIN

CITY            SKY/WX      TMP DP  RH  WIND    PRES   REMARKS
JOHN DAY        CLOUDY      41  40  96  NE3     30.24S
#DAYVILLE SCHOOLN/A         45  40  82  E5      30.18F
#MITCHELL       N/A         56  49  77  CALM    30.34F
#MITCHELL 8NW   N/A         54  43  66  SW5     30.40F
#MONUMENT HS    N/A         47  43  86  N3      30.11F
#MT. VERNON 5SE N/A         41  40  96  CALM    30.19R
#WINLOCK        N/A         47  45  93  CALM    30.15F
$$

ORZ506-150010-
OCHOCO AND JOHN DAY HIGHLANDS

CITY            SKY/WX      TMP DP  RH  WIND    PRES   REMARKS
#HORSE RIDGE DO N/A         54  41  61  W14     N/A
#PAULINA SCHOOL N/A         48  43  83  N1      30.18S
#PINE MTN OBS   N/A         43  39  86  W6      N/A
#PRAIRIE CITY   N/A         40  39  96  CALM    30.22S
#SENECA         N/A         39  N/A N/A CALM    N/A
#SENECA 9NW     N/A         39  37  92  CALM    30.30R
$$

ORZ049-150010-
GRANDE RONDE VALLEY

CITY            SKY/WX      TMP DP  RH  WIND    PRES   REMARKS
LA GRANDE       CLOUDY      45  45  100 E8      30.16F
#COVE           N/A         44  44  100 N1      30.20F
#COVE SCHOOL    N/A         44  42  93  CALM    30.19S
#COVE 6NW       N/A         42  40  93  SE1     30.07F
#ELGIN 3N       N/A         43  38  82  CALM    30.13F
#ELGIN 1E       N/A         44  39  82  CALM    N/A
#IMBLER SCHOOL  N/A         43  40  89  S10     30.12S
#ISLAND CITY 4N N/A         55  53  93  CALM    30.25S
#LADD CYN DOT   N/A         42  39  89  S12     N/A    WCI 35
#UNION 1S       N/A         42  39  89  S8      30.16S
$$

ORZ050-150010-
WALLOWA COUNTY

CITY            SKY/WX      TMP DP  RH  WIND    PRES   REMARKS
JOSEPH AIRPORT  CLOUDY      39  34  82  SE3     30.15F
#ENTERPRISE AP  N/A         42  37  82  CALM    30.06F
#ENTERPRISE HS  N/A         43  40  89  CALM    30.14F
#JOSEPH 3N      N/A         41  35  79  CALM    30.14F
#JOSEPH 3W      N/A         41  35  79  CALM    29.97S
#LOSTINE        N/A         41  37  86  CALM    30.01F
#MT HOWARD 8000 N/A         34  31  89  W14G30  30.13S WCI 25
#PROMISE 1S     N/A         41  38  89  E7      30.27F
#WALLOWA SCHOOL N/A         41  39  93  CALM    30.11F



$$



USA.gov is the U.S. government's official web portal to all federal, state and local government web resources and services.